Regional Weather Roundup
Issued by NWS Spokane, WA

Home | Current Version | Previous Version | Text Only | Print | Product List | Glossary On
Versions: 1 2 3 4 5 6 7 8 9 10 11 12 13 14 15 16 17 18 19 20 21 22 23 24 25 26 27 28 29 30 31 32 33 34 35 36 37 38 39 40 41 42 43 44 45 46 47 48 49 50
000
NZUS01 KOTX 251910
RWROTX
EASTERN WASHINGTON/NORTHERN IDAHO ROUNDUP
NATIONAL WEATHER SERVICE, SPOKANE WA
1200 PM PDT WED MAY 25 2016

Note: "fair" indicated few or no clouds below 12,000 feet with no
significant weather and/or obstructions to visibility.

...NORTHEAST WASHINGTON AND NORTHERN IDAHO PANHANDLE...

CITY           SKY/WX    TMP DP  RH WIND       PRES   REMARKS
SPOKANE INTL   PTSUNNY   62  46  55 SW12      30.03R
SPOKANE DOWNTO PTSUNNY   65  49  56 S8        30.02S
COEUR D ALENE  CLOUDY    64  50  59 W10       30.00R
DEER PARK      MOSUNNY   63  49  60 S9        30.02S
SANDPOINT      MOSUNNY   64  46  52 S9        29.99S
BONNERS FERRY  FAIR      64  50  59 SE7       29.96F

...SOUTHEAST WASHINGTON AND SOUTHERN IDAHO PANHANDLE...

CITY           SKY/WX    TMP DP  RH WIND       PRES   REMARKS
WALLA WALLA    MOSUNNY   69  46  43 SW13      30.04S
PULLMAN/MOSCOW PTSUNNY   62  47  57 W7        30.07R
LEWISTON       MOSUNNY   65  46  50 VRB3      30.04F
LOWELL           N/A     56  53  90 VRB5      30.05R

...COLUMBIA BASIN...

CITY           SKY/WX    TMP DP  RH WIND       PRES   REMARKS
EPHRATA        SUNNY     71  42  35 SW7G20    29.98R
MOSES LAKE     SUNNY     73  43  33 S8        29.99F
TRI CITIES     SUNNY     73  46  38 S10G18    30.01F
HERMISTON      SUNNY     73  44  35 SW9       30.03S
PENDLETON      MOSUNNY   70  42  36 W9G20     30.04S

...EAST SLOPES CASCADES...

CITY           SKY/WX    TMP DP  RH WIND       PRES   REMARKS
THE DALLES     SUNNY     71  44  37 NW24G35   30.06S
YAKIMA         SUNNY     73  43  33 CALM      30.01S
ELLENSBURG     SUNNY     69  46  43 NW21G30   30.00F
STAMPEDE PASS  CLOUDY    44  42  93 VRB6      30.13R
WENATCHEE      SUNNY     71  40  32 VRB3      29.98S
OMAK           SUNNY     71  44  37 VRB3      29.96F

...SOUTHERN BRITISH COLUMBIA...

CITY           SKY/WX    TMP DP  RH WIND       PRES   REMARKS
PENTICTON      MOSUNNY   72  43  35 VRB3      29.96F
CASTLEGAR      PTSUNNY   72  52  49 S8        29.92F
CRANBROOK      MOSUNNY   66  45  45 VRB8      29.92F

...WESTERN MONTANA...

CITY           SKY/WX    TMP DP  RH WIND       PRES   REMARKS
MISSOULA       MOSUNNY   60  43  53 CALM      30.01F

...NEIGHBORING CITIES...

CITY           SKY/WX    TMP DP  RH WIND       PRES   REMARKS
SEATTLE        PTSUNNY   61  50  67 SW9       30.17R
CALGARY        PTSUNNY   64  41  42 VRB3      29.88S



USA.gov is the U.S. government's official web portal to all federal, state and local government web resources and services.